Other Public Products
Issued by NWS Charleston, SC

Current Version | Previous Version | Graphics & Text | Print | Product List | Glossary On
Versions: 1 2 3 4 5 6 7 8 9 10 11 12 13 14 15 16 17 18 19 20 21 22 23 24 25 26 27 28 29 30 31 32 33 34 35 36 37 38 39 40 41 42 43 44 45 46 47 48 49 50
000
FPUS82 KCHS 162212
OPUCHS

TEST...KCHS/KSAV Gateway Observations...TEST
National Weather Service Charleston SC
600 PM EDT MON OCT 16 2017

NOTE: "fair" indicates few or no clouds below 12,000 feet with no
significant weather and/or obstructions to visibility.

SCZ050-WAZ558-NCZ071-TXZ119-213-PAZ071-DCZ001-FLZ074-172-MI076-
NYZ176-178-MAZ016-IL014-TNZ027-NJZ106-GAZ044-MD014-162300-

...Gateway Observations for Charleston International...

CITY           SKY/WX    TMP DP  RH WIND       PRES   REMARKS
Chas Airport   CLOUDY    68  66  93 N18       29.98R
Seattle        MOSUNNY   60  48  64 S18       30.17F
Charlotte      PTCLDY    65  43  44 N15       30.12R
Dallas DFW     SUNNY     74  37  26 N8        30.26F
Dallas Love    SUNNY     74  36  25 NE6       30.27F
Philladelphia  PTCLDY    59  38  45 NW12      30.11R
Wash National  PTCLDY    63  35  35 NW17      30.13R
Baltimore      PTCLDY    61  37  41 NW6       30.12R
Miami          MOSUNNY   85  73  67 E6        29.90S HX  91
Detroit        MOCLDY    56  35  45 SW8       30.26S
Newark         MOCLDY    57  37  47 NW16      30.08R
Laguardia      CLOUDY    57  39  51 NW14      30.07R
J F K          CLOUDY    56  39  53 NW14      30.08R
Boston Logan   CLOUDY    54  38  54 NW12G22   30.01R
Ft. Lauderdale MOSUNNY   83  76  79 E9        29.90S HX  91
Chicago O`Hare SUNNY     62  35  36 W9        30.21F
Chicago Midway MOSUNNY   62  34  35 W9        30.22F
Houston Bush   MOSUNNY   77  47  34 N12G20    30.17S
Houston Hobby  MOSUNNY   78  46  32 N15G25    30.15S
Nashville      MOSUNNY   64  40  41 N15       30.26S
Atlanta        MOSUNNY   66  46  48 NW17      30.09S

$$

GAZ044-118-TXZ119-213-NCZ071-DCZ001-MDZ014-506-PAZ021-071-NJZ106-
NYZ176-178-MAZ106-OHZ011-021-055-MIZ076-KYZ091-ILZ014-INZ047-
MNZ060-ONZ431-162300-

...Gateway Observations for Savannah International...

CITY           SKY/WX    TMP DP  RH WIND       PRES   REMARKS
Savannah Arpt  MOCLDY    79  73  82 CALM      29.95S
Atlanta        MOSUNNY   66  46  48 NW17      30.09S
Charlotte      PTCLDY    65  43  44 N15       30.12R
Dallas DFW     SUNNY     74  37  26 N8        30.26F
Houston Bush   MOSUNNY   77  47  34 N12G20    30.17S
Wash National  PTCLDY    63  35  35 NW17      30.13R
Wash Dulles    PTCLDY    61  34  36 NW16      30.14R
Baltimore      PTCLDY    61  37  41 NW6       30.12R
Philadelphia   PTCLDY    59  38  45 NW12      30.11R
Newark         MOCLDY    57  37  47 NW16      30.08R
Laguardia      CLOUDY    57  39  51 NW14      30.07R
J F K          CLOUDY    56  39  53 NW14      30.08R
Boston         CLOUDY    54  38  54 NW12G22   30.01R
Pittsburg      PTCLDY    56  32  40 N16       30.23R
Akron          PTCLDY    54  31  41 NW10      30.26R
Cleveland      PTCLDY    54  34  46 W8        30.29F
Cincinnati     MOSUNNY   59  37  44 N6        30.27F
Columbus       PTCLDY    56  37  48 NW6       30.26F
Detroit        MOCLDY    56  35  45 SW8       30.26S
Chicago O`Hare SUNNY     62  35  36 W9        30.21F
Minneapolis    MOSUNNY   66  36  32 S9G18     30.03F
Indianapolis   MOSUNNY   60  36  40 W10       30.29F
Toronto Canada PTCLDY    48  28  46 N10       30.24R

$$




USA.gov is the U.S. government's official web portal to all federal, state and local government web resources and services.